Regional Weather Roundup
Issued by NWS

Home | Current Version | Previous Version | Graphics & Text | Print | Product List | Glossary On
Versions: 1 2 3 4 5 6 7 8 9 10 11 12 13 14 15 16 17 18 19 20 21 22 23 24 25 26 27 28 29 30 31 32 33 34 35 36 37 38 39 40 41 42 43 44 45 46 47 48 49 50
000
ASUS43 KDMX 291206
RWRIA

WEATHER ROUNDUP FOR IOWA
NATIONAL WEATHER SERVICE DES MOINES IA
700 AM CDT SAT APR 29 2017

NOTE: "FAIR" INDICATES FEW OR NO CLOUDS BELOW 12,000 FEET WITH NO
SIGNIFICANT WEATHER AND/OR OBSTRUCTIONS TO VISIBILITY.

* - THESE STATIONS ARE NOT NWS STATIONS...THUS NOT UNDER NWS
QUALITY CONTROL.  THEY ALSO DO NOT REPORT WEATHER SUCH
AS PRECIPITATION OR FOG.

IAZ001>003-012>014-020>022-031>034-043>046-291300-
   NORTHWEST IOWA

CITY           SKY/WX    TMP DP  RH WIND       PRES   REMARKS
CARROLL *      CLOUDY    41  36  81 NE10G16   30.16R
CHEROKEE *     CLOUDY    38  32  78 N6        30.18R WCI  34
DENISON *      CLOUDY    39  34  81 NE14      30.16R WCI  31
LE MARS *      CLOUDY    37  30  75 NE10      30.17F WCI  30
ORANGE CITY *  CLOUDY    37  30  75 NE6       30.17S WCI  33
SHELDON *      MOCLDY    37  28  70 NE14      30.18R WCI  29
SIOUX CITY     CLOUDY    41  30  65 NE12      30.15R
6HR MIN TEMP:  39; 6HR MAX TEMP:  44;

SPENCER        CLOUDY    38  29  70 NE15      30.18R WCI  29
6HR MIN TEMP:  32; 6HR MAX TEMP:  38;

STORM LAKE *   CLOUDY    37  32  81 NE14G22   30.15R WCI  29
$$

IAZ055>058-069>071-079>083-090>094-291300-
   SOUTHWEST IOWA

CITY           SKY/WX    TMP DP  RH WIND       PRES   REMARKS
ATLANTIC *     CLOUDY    43  36  75 NE12      30.12R
AUDUBON *      CLOUDY    39  36  87 N7        30.14R WCI  34
CLARINDA *     CLOUDY    45  37  76 NE13      30.07S
COUNCIL BLFS * MIX PCPN  41  37  87 NE12      30.10S
CRESTON *      CLOUDY    43  37  81 NE22      30.07R
HARLAN  *      CLOUDY    41  36  81 NE15      30.16R
LAMONI         CLOUDY    43  41  93 NE16G26   29.98F
6HR MIN TEMP:  43; 6HR MAX TEMP:  44;

RED OAK *      CLOUDY    43  36  75 NE14      30.08R
SHENANDOAH *   CLOUDY    45  37  76 NE15      30.07S
$$

IAZ047>049-059>061-072>074-084-291300-
   CENTRAL IOWA

CITY           SKY/WX    TMP DP  RH WIND       PRES   REMARKS
AMES           CLOUDY    42  36  79 NE9       30.12R
6HR MIN TEMP:  42; 6HR MAX TEMP:  44;

ANKENY *       CLOUDY    43  36  75 MISG      30.12R
BOONE *        CLOUDY    41  36  81 NE15      30.11R
CHARITON *     CLOUDY    43  41  93 NE15G22   30.05S
DES MOINES     CLOUDY    45  35  68 NE16G24   30.09R
6HR MIN TEMP:  44; 6HR MAX TEMP:  46;

GRINNELL*      CLOUDY    42  37  83 NE13G20   30.12R
KNOXVILLE *    CLOUDY    45  39  81 NE13G20   30.07S
MARSHALLTOWN   CLOUDY    42  35  76 NE17      30.12R
6HR MIN TEMP:  40; 6HR MAX TEMP:  42;

NEWTON *       CLOUDY    43  37  81 NE13      30.12R
PELLA *        CLOUDY    44  39  81 E7        30.11R
PERRY *        CLOUDY    42  35  74 NE10      30.13R
$$

IAZ004>006-015-016-023>025-035-036-291300-
   NORTH CENTRAL IOWA

CITY           SKY/WX    TMP DP  RH WIND       PRES   REMARKS
ALGONA *       CLOUDY    36  32  87 N9        30.17R WCI  29
CLARION *      CLOUDY    39  34  81 NE15G22   30.15R WCI  31
ESTHERVILLE    CLOUDY    36  31  82 NE13      30.18R WCI  27
6HR MIN TEMP:  32; 6HR MAX TEMP:  36;

FORT DODGE *   CLOUDY    37  30  75 NE9       30.13F WCI  31
MASON CITY     CLOUDY    38  31  76 NE9       30.18R WCI  31
6HR MIN TEMP:  35; 6HR MAX TEMP:  38;

FOREST CITY *    N/A     37  30  75 N9        30.17R WCI  31
WEBSTER CITY * CLOUDY    39  34  81 NE14      30.10S WCI  31
IOWA FALLS *     N/A     39  33  79 NE9G17    30.16R WCI  33
$$

IAZ007>011-017>019-026>030-037>042-050>054-066-291300-
   NORTHEAST IOWA

CITY           SKY/WX    TMP DP  RH WIND       PRES   REMARKS
CEDAR RAPIDS   CLOUDY    44  39  82 NE17      30.09S
6HR MIN TEMP:  44; 6HR MAX TEMP:  45;

CHARLES CITY * CLOUDY    39  32  75 NE12G17   30.17R WCI  32
CLINTON *      CLOUDY    46  42  86 NE20      30.10F
DECORAH *      PTCLDY    37  32  81 NE8       30.16R WCI  31
DUBUQUE        CLOUDY    43  35  73 NE15      30.14R
6HR MIN TEMP:  42; 6HR MAX TEMP:  44;

MONTICELLO *   CLOUDY    45  37  76 NE13      30.13R
OELWEIN *      CLOUDY    41  34  75 E16       30.15R
WATERLOO       CLOUDY    40  34  79 NE10      30.15R WCI  33
6HR MIN TEMP:  39; 6HR MAX TEMP:  42;

$$

IAZ064-065-067-068-078-291300-
   EAST CENTRAL IOWA

CITY           SKY/WX    TMP DP  RH WIND       PRES   REMARKS
DAVENPORT      CLOUDY    46  41  82 NE14      30.08F
6HR MIN TEMP:  44; 6HR MAX TEMP:  46;

IOWA CITY      CLOUDY    47  39  74 NE13G21   30.09F
6HR MIN TEMP:  45; 6HR MAX TEMP:  47; 6HR PCP: TRACE;

MT. PLEASANT * CLOUDY    45  45 100 NE16G26   30.02S
MUSCATINE *    CLOUDY    48  43  81 NE15G22   30.06F
QUAD CITIES    CLOUDY    47  43  86 NE15      30.07F
6HR MIN TEMP:  47; 6HR MAX TEMP:  48;

$$

IAZ062-063-075>077-085>089-095>099-291300-
   SOUTHEAST IOWA

CITY           SKY/WX    TMP DP  RH WIND       PRES   REMARKS
BURLINGTON     CLOUDY    47  46  97 NE20G25   30.02F
6HR MIN TEMP:  47; 6HR MAX TEMP:  48;

FAIRFIELD *    CLOUDY    45  43  93 NE15G24   30.03S
FORT MADISON * CLOUDY    48  46  93 NE13G20   30.01R FOG
KEOKUK *       LGT RAIN  48  46  93 NE14G22   30.00R
OSKALOOSA *    CLOUDY    44  40  86 NE16G24   30.07R
CENTERVILLE *  CLOUDY    45  45 100 NE13G18   30.02S
OTTUMWA        CLOUDY    45  43  93 NE16      30.05S
6HR MIN TEMP:  44; 6HR MAX TEMP:  45;

WASHINGTON *   CLOUDY    45  43  93 E17G25    30.05F
$$

ABBREVIATIONS USED IN REMARKS
   TC - TEMPERATURES IN CELSIUS
  WCI - WIND CHILL INDEX
   HX - HEAT INDEX
  VSB - VISIBILITY
$$




USA.gov is the U.S. government's official web portal to all federal, state and local government web resources and services.